Weather History for KPIH - July, 2013

Change the Weather History Date:

Saturday, July 6, 2013

  Actual Average Record
Temperature  
Mean Temperature 72 °F 68 °F  
Max Temperature 90 °F 86 °F 102 °F (2007)
Min Temperature 53 °F 51 °F 35 °F (1986)
Degree Days  
Heating Degree Days 0 1  
Month to date heating degree days 0 7  
Since 1 June heating degree days 90 138  
Since 1 July heating degree days 0 7  
Cooling Degree Days 7 4  
Month to date cooling degree days 73 23  
Year to date cooling degree days 175 74  
Since 1 June cooling degree days 166 69  
Growing Degree Days 22 (Base 50)    
Moisture  
Dew Point 50 °F    
Average Humidity 54    
Maximum Humidity 83    
Minimum Humidity 24    
Precipitation  
Precipitation 0.12 in 0.02 in 0.20 in (2002)
Month to date precipitation 0.12 0.11  
Year to date precipitation 3.67 6.93  
Snow  
Snow 0.00 in - - ()
Month to date snowfall 0.0  
Since 1 June snowfall 0.0  
Since 1 July snowfall 0.0  
Snow Depth 0.00 in    
Sea Level Pressure  
Sea Level Pressure 29.79 in    
Wind  
Wind Speed 8 mph (SW)    
Max Wind Speed 38 mph    
Max Gust Speed 52 mph    
Visibility 10 miles    
Events Rain , Thunderstorm    
T = Trace of Precipitation, MM = Missing Value Source: NWS Daily Summary

Daily Weather History Graph

Daily Weather History Graph

Search for Another Location

Airport or City:

Trip Planner

Search our weather history database for the weather conditions in past years. The results will help you decide how hot, cold, wet, or windy it might be!

Date:

Astronomy

Jul. 06, 2013 Rise Set
Actual Time 5:58 AM MDT 9:11 PM MDT
Civil Twilight 5:23 AM MDT 9:46 PM MDT
Nautical Twilight 4:38 AM MDT 10:30 PM MDT
Astronomical Twilight 3:44 AM MDT 11:25 PM MDT
Moon 4:48 AM MDT (7/6) 7:54 PM MDT (7/6)
Length of Visible Light 16h 22m
Length of Day
15h 13m
Waning Crescent, 2% of the Moon is Illuminated
Jul 6
Waning Crescent
Jul 8
New
Jul 15
First Quarter
Jul 22
Full
Jul 29
Last Quarter

Hourly Weather History & Observations

Time (MDT) Temp. Heat Index Dew Point Humidity Pressure Visibility Wind Dir Wind Speed Gust Speed Precip Events Conditions
12:53 AM 60.1 °F - 48.9 °F 67% 29.75 in 10.0 mi NW 6.9 mph - N/A   Clear
1:53 AM 57.9 °F - 48.9 °F 72% 29.75 in 10.0 mi North 8.1 mph - N/A   Clear
2:53 AM 55.9 °F - 48.9 °F 77% 29.77 in 10.0 mi Calm Calm - N/A   Clear
3:53 AM 59.0 °F - 48.9 °F 69% 29.77 in 10.0 mi Calm Calm - N/A   Clear
4:53 AM 55.0 °F - 48.9 °F 80% 29.80 in 10.0 mi NNW 8.1 mph - N/A   Clear
5:53 AM 53.1 °F - 48.9 °F 86% 29.83 in 10.0 mi North 8.1 mph - N/A   Clear
6:53 AM 57.9 °F - 50.0 °F 75% 29.85 in 10.0 mi Calm Calm - N/A   Clear
7:53 AM 64.9 °F - 51.1 °F 61% 29.84 in 10.0 mi North 3.5 mph - N/A   Clear
8:53 AM 69.1 °F - 51.1 °F 53% 29.84 in 10.0 mi ENE 4.6 mph - N/A   Clear
9:53 AM 73.9 °F - 53.1 °F 48% 29.83 in 10.0 mi East 5.8 mph - N/A   Partly Cloudy
10:53 AM 82.0 °F 81.3 °F 54.0 °F 38% 29.83 in 10.0 mi East 8.1 mph - N/A   Scattered Clouds
11:53 AM 84.9 °F - 50.0 °F 30% 29.80 in 10.0 mi South 6.9 mph - N/A   Scattered Clouds
12:53 PM 84.9 °F - 50.0 °F 30% 29.79 in 10.0 mi SW 10.4 mph - N/A   Scattered Clouds
1:53 PM 86.0 °F 84.0 °F 53.1 °F 32% 29.79 in 10.0 mi WSW 13.8 mph 20.7 mph N/A   Scattered Clouds
2:53 PM 89.1 °F - 48.9 °F 25% 29.74 in 10.0 mi Variable 5.8 mph - 0.00 in   Scattered Clouds
3:53 PM 84.0 °F 83.0 °F 55.9 °F 38% 29.73 in 10.0 mi WNW 8.1 mph - 0.00 in   Mostly Cloudy
4:13 PM 82.4 °F 81.7 °F 55.4 °F 39% 29.88 in 10.0 mi NW 5.8 mph - 0.00 in Thunderstorm Thunderstorm
4:46 PM 71.6 °F - 59.0 °F 64% 29.89 in 8.0 mi SSW 20.7 mph 25.3 mph 0.06 in Rain , Thunderstorm Thunderstorms with Small Hail
4:53 PM 69.1 °F - 55.9 °F 63% 29.77 in 8.0 mi SSE 8.1 mph 25.3 mph 0.11 in Rain , Thunderstorm Light Thunderstorms and Rain
5:44 PM 73.4 °F - 48.2 °F 41% 29.90 in 10.0 mi SW 32.2 mph 43.7 mph 0.01 in Rain , Thunderstorm Light Thunderstorms and Rain
5:53 PM 73.0 °F - 46.9 °F 39% 29.75 in 10.0 mi SSW 38.0 mph 51.8 mph 0.01 in Rain , Thunderstorm Light Thunderstorms and Rain
6:32 PM 75.2 °F - 44.6 °F 34% 29.86 in 10.0 mi SSE 25.3 mph 32.2 mph 0.00 in   Scattered Clouds
6:53 PM 75.9 °F - 48.0 °F 37% 29.73 in 10.0 mi SSE 10.4 mph - 0.00 in   Scattered Clouds
7:53 PM 75.9 °F - 46.0 °F 35% 29.72 in 10.0 mi South 16.1 mph - N/A   Partly Cloudy
8:53 PM 73.9 °F - 48.9 °F 41% 29.74 in 10.0 mi WSW 3.5 mph - N/A   Partly Cloudy
9:53 PM 72.0 °F - 43.0 °F 35% 29.74 in 10.0 mi South 8.1 mph - N/A   Clear
10:53 PM 66.9 °F - 44.1 °F 44% 29.74 in 10.0 mi Variable 5.8 mph - N/A   Clear
11:53 PM 66.0 °F - 46.0 °F 48% 29.75 in 10.0 mi NNE 11.5 mph - N/A   Clear